Location: Unspecified
(38.2699°N, 0.0000°E)
Time: 03:48:42
(UTC+00:00)

CUBEBUG 2 - Visible Passes

Search period start: 04 April 2026 00:00
Search period end: 14 April 2026 00:00
Orbit: 549 x 628 km, 97.9° (Epoch: 29 March)

Date Brightness Start Highest point End Pass type
(mag) Time Alt. Az. Time Alt. Az. Time Alt. Az.
4 Apr ? 02:52:45 10° N 02:53:47 16° N 02:53:47 16° N visible
5 Apr ? 03:00:13 10° N 03:01:17 16° NNW 03:01:17 16° NNW visible
6 Apr ? 03:07:41 10° NNW 03:08:48 16° NNW 03:08:48 16° NNW visible
7 Apr ? 01:39:36 10° NE 01:39:47 11° NE 01:39:47 11° NE visible
7 Apr ? 03:15:12 10° NNW 03:16:17 15° NNW 03:16:17 15° NNW visible
8 Apr ? 01:46:44 10° NNE 01:47:16 13° NE 01:47:16 13° NE visible
8 Apr ? 03:22:44 10° NNW 03:23:46 14° NNW 03:23:46 14° NNW visible
9 Apr ? 01:53:53 10° NNE 01:54:44 15° NNE 01:54:44 15° NNE visible
9 Apr ? 03:30:21 10° NNW 03:31:14 13° NW 03:31:14 13° NW visible
10 Apr ? 02:01:04 10° NNE 02:02:11 17° NNE 02:02:11 17° NNE visible
10 Apr ? 03:38:03 10° NW 03:38:41 12° NW 03:38:41 12° NW visible
11 Apr ? 02:08:16 10° NNE 02:09:37 20° NNE 02:09:37 20° NNE visible
11 Apr ? 03:45:59 10° NW 03:46:07 10° NW 03:46:07 10° NW visible
12 Apr ? 02:15:28 10° NNE 02:17:03 22° NNE 02:17:03 22° NNE visible
13 Apr ? 02:22:41 10° NNE 02:24:27 24° NNE 02:24:27 24° NNE visible
